Погода в Пяйве

Россия / Мурманская область     68°58′09″N   32°27′40″E
В апреле 2022 года жителям России запретили посещать сайт meteo.paraplan.net по решению Генеральной прокуратуры. Аудитория сайта уменьшилась в 10 раз. Владельцы сайта не видят смысла в поддержке погодного сервера в таких условиях. Сайт будет закрыт в октябре.
темп.,
°C
ветер,
м/с
пор.,
м/с
влажн.,
%
обл.,
%
осадки,
мм/ч
давл.,
гПа
погр.,
м
4 октября, вт
вт400:00+1зюз1192100 0.0 101510
03:00+1зюз0092100 0.0 101610
06:00+1вюв1192100 0.0 101610
09:00+3в1187100 0.0 101514
12:00+5всв1286100 0.0 1015111
15:00+6всв1290100 0.0 1014189
18:00+4вюв2294100 0.0 101316
21:00+3юв3693100 0.0 1012214
5 октября, ср
ср500:00+3ююв0199100 0.0 1011123
03:00+3ю3499100 0.1 1010496
06:00+3ю3698100 0.3 1009542
09:00+4ю3797100 0.3 1009397
12:00+4ю488899 0.0 1009440
15:00+5ю4788100 0.0 1008398
18:00+5юв2294100 0.0 100828
21:00+5юв349575 0.0 100688
6 октября, чт
чт600:00+6юв3690100 0.0 1005132
03:00+5юв4894100 0.0 1002183
06:00+7ююв7148384 0.0 998642
09:00+7ююв112080100 0.0 993783
12:00+8ююв112181100 0.1 987903
15:00+7ю101785100 3.3 984899
18:00+8ююз1117818 0.0 982911
21:00+6ююз111880100 0.0 981979
7 октября, пт
пт700:00+6юз111787100 0.1 9821136
03:00+6юз101780100 0.2 983795
06:00+5юз8148534 0.0 985400
09:00+5юз8148575 0.0 987533
12:00+6юз9147619 0.0 989786
15:00+7юз81472100 0.0 991665
18:00+5юз71382100 0.0 992355
21:00+5юз713818 0.0 994326
8 октября, сб
сб800:00+4ююз5108453 0.0 994192
03:00+4ю61290100 0.0 993291
06:00+4ю61189100 0.0 992386
09:00+5ююв41189100 0.1 989504
12:00+7ююв51286100 0.1 987613
15:00+6ююв2596100 2.9 985126
18:00+6юз599059 1.6 986253
21:00+3ююз47930 1.6 987100